FFT2280 KCLE-KMCO

Flight info

Callsign FFT2280
Flight time 2h 1m
Altitude 38000
Route CAVVS4 APE Q149 BURGG IRQ WHYYT GRNCH5
Aircraft A20N/M-SDE2E3FGHIRWXY/LB1

Departure

Time 2026-04-26 02:51
Airport Cleveland Hopkins International Airport (KCLE)

Arrival

Time 2026-04-26 04:52
Airport Orlando International Airport (KMCO)
Time Latitude Longitude Altitude Speed Heading
2026-04-26 02:26 41.41302 -81.83774 765 ft 0 kts 297°
2026-04-26 02:39 41.41299 -81.83766 765 ft 2 kts 297°
2026-04-26 02:39 41.41293 -81.83751 765 ft 2 kts 297°
2026-04-26 02:40 41.41287 -81.83736 765 ft 2 kts 306°
2026-04-26 02:40 41.41277 -81.83726 765 ft 2 kts 11°
2026-04-26 02:40 41.41264 -81.83730 765 ft 2 kts 24°
2026-04-26 02:40 41.41262 -81.83732 765 ft 0 kts 35°
2026-04-26 02:42 41.41266 -81.83727 765 ft 3 kts 35°
2026-04-26 02:42 41.41305 -81.83684 765 ft 10 kts 41°
2026-04-26 02:43 41.41464 -81.83669 765 ft 14 kts 328°
2026-04-26 02:43 41.41519 -81.83780 765 ft 15 kts 283°
2026-04-26 02:43 41.41497 -81.83921 765 ft 17 kts 229°
2026-04-26 02:44 41.41420 -81.84051 765 ft 18 kts 248°
2026-04-26 02:44 41.41385 -81.84211 769 ft 19 kts 236°
2026-04-26 02:44 41.41294 -81.84354 766 ft 21 kts 228°
2026-04-26 02:44 41.41196 -81.84512 766 ft 23 kts 231°
2026-04-26 02:45 41.41091 -81.84682 766 ft 25 kts 231°
2026-04-26 02:45 41.40974 -81.84861 766 ft 26 kts 228°
2026-04-26 02:45 41.40852 -81.85054 765 ft 28 kts 231°
2026-04-26 02:45 41.40725 -81.85260 765 ft 29 kts 231°
2026-04-26 02:46 41.40592 -81.85471 768 ft 30 kts 229°
2026-04-26 02:46 41.40455 -81.85682 766 ft 21 kts 230°
2026-04-26 02:46 41.40438 -81.85708 766 ft 3 kts 230°
2026-04-26 02:46 41.40409 -81.85754 766 ft 9 kts 230°
2026-04-26 02:47 41.40360 -81.85833 766 ft 13 kts 230°
2026-04-26 02:47 41.40291 -81.85925 766 ft 15 kts 210°
2026-04-26 02:47 41.40183 -81.85960 772 ft 17 kts 198°
2026-04-26 02:47 41.40089 -81.86065 772 ft 19 kts 229°
2026-04-26 02:48 41.39998 -81.86207 772 ft 21 kts 230°
2026-04-26 02:48 41.39898 -81.86365 772 ft 23 kts 230°
2026-04-26 02:48 41.39790 -81.86536 772 ft 25 kts 230°
2026-04-26 02:48 41.39675 -81.86719 772 ft 27 kts 230°
2026-04-26 02:49 41.39650 -81.86770 772 ft 2 kts 249°
2026-04-26 02:49 41.39645 -81.86798 772 ft 4 kts 267°
2026-04-26 02:49 41.39666 -81.86833 772 ft 7 kts 320°
2026-04-26 02:49 41.39724 -81.86893 771 ft 14 kts 320°
2026-04-26 02:50 41.39814 -81.86926 771 ft 13 kts 35°
2026-04-26 02:50 41.39829 -81.86903 771 ft 14 kts 49°
2026-04-26 02:50 41.40052 -81.86549 770 ft 84 kts 49°
2026-04-26 02:50 41.40540 -81.85772 767 ft 135 kts 50°
2026-04-26 02:51 41.41204 -81.84701 1168 ft 152 kts 49°
2026-04-26 02:51 41.41920 -81.83573 1846 ft 167 kts 47°
2026-04-26 02:51 41.42673 -81.82338 2627 ft 177 kts 56°
2026-04-26 02:51 41.43000 -81.80683 3315 ft 194 kts 86°
2026-04-26 02:52 41.42684 -81.78882 3800 ft 209 kts 98°
2026-04-26 02:52 41.42417 -81.76886 4191 ft 228 kts 91°
2026-04-26 02:52 41.42211 -81.74700 4723 ft 251 kts 98°
2026-04-26 02:52 41.41457 -81.72517 5413 ft 273 kts 121°
2026-04-26 02:53 41.40115 -81.70606 6171 ft 287 kts 130°
2026-04-26 02:53 41.38706 -81.68762 6666 ft 281 kts 130°
2026-04-26 02:53 41.37312 -81.66946 6606 ft 280 kts 130°
2026-04-26 02:53 41.35851 -81.65190 6599 ft 290 kts 143°
2026-04-26 02:54 41.33908 -81.64212 6801 ft 311 kts 172°
2026-04-26 02:54 41.31763 -81.64492 7695 ft 310 kts 200°
2026-04-26 02:54 41.29917 -81.65851 8522 ft 299 kts 222°
2026-04-26 02:54 41.28412 -81.67808 8950 ft 306 kts 231°
2026-04-26 02:55 41.27013 -81.69933 9939 ft 305 kts 232°
2026-04-26 02:55 41.25575 -81.72053 10622 ft 317 kts 230°
2026-04-26 02:55 41.23990 -81.74250 10910 ft 341 kts 227°
2026-04-26 02:55 41.22252 -81.76536 11280 ft 359 kts 226°
2026-04-26 02:56 41.20445 -81.78845 12073 ft 362 kts 226°
2026-04-26 02:56 41.18609 -81.81161 12899 ft 365 kts 225°
2026-04-26 02:56 41.16772 -81.83445 13687 ft 369 kts 225°
2026-04-26 02:56 41.14885 -81.85782 14411 ft 372 kts 225°
2026-04-26 02:57 41.12984 -81.88139 15111 ft 376 kts 225°
2026-04-26 02:57 41.11065 -81.90521 15808 ft 379 kts 225°
2026-04-26 02:57 41.09132 -81.92923 16501 ft 383 kts 225°
2026-04-26 02:57 41.07181 -81.95348 17193 ft 386 kts 225°
2026-04-26 02:58 41.05209 -81.97798 17805 ft 392 kts 225°
2026-04-26 02:58 41.03213 -82.00276 18471 ft 394 kts 225°
2026-04-26 02:58 41.01200 -82.02772 19062 ft 398 kts 225°
2026-04-26 02:58 40.99172 -82.05285 19635 ft 401 kts 225°
2026-04-26 02:59 40.97099 -82.07783 20209 ft 405 kts 221°
2026-04-26 02:59 40.94803 -82.09970 20780 ft 409 kts 212°
2026-04-26 02:59 40.92274 -82.11743 21343 ft 413 kts 205°
2026-04-26 02:59 40.89652 -82.13337 21899 ft 416 kts 205°
2026-04-26 03:00 40.87011 -82.14953 22459 ft 419 kts 205°
2026-04-26 03:00 40.84358 -82.16584 22954 ft 424 kts 205°
2026-04-26 03:00 40.81703 -82.18218 23466 ft 428 kts 205°
2026-04-26 03:00 40.78990 -82.19888 23973 ft 430 kts 205°
2026-04-26 03:01 40.76277 -82.21557 24493 ft 431 kts 206°
2026-04-26 03:01 40.73557 -82.23228 24991 ft 432 kts 206°
2026-04-26 03:01 40.70827 -82.24904 25468 ft 433 kts 206°
2026-04-26 03:01 40.68089 -82.26584 25935 ft 435 kts 206°
2026-04-26 03:02 40.65335 -82.28271 26391 ft 437 kts 206°
2026-04-26 03:02 40.62589 -82.29952 26963 ft 435 kts 207°
2026-04-26 03:02 40.59839 -82.31634 27393 ft 437 kts 207°
2026-04-26 03:02 40.57076 -82.33325 27798 ft 439 kts 207°
2026-04-26 03:03 40.54302 -82.35022 28214 ft 440 kts 207°
2026-04-26 03:03 40.51518 -82.36722 28605 ft 442 kts 207°
2026-04-26 03:03 40.48758 -82.38406 28987 ft 443 kts 207°
2026-04-26 03:03 40.45952 -82.40117 29335 ft 446 kts 207°
2026-04-26 03:04 40.43119 -82.41844 29479 ft 452 kts 207°
2026-04-26 03:04 40.40263 -82.43582 29858 ft 453 kts 207°
2026-04-26 03:04 40.37403 -82.45320 30216 ft 454 kts 207°
2026-04-26 03:04 40.34533 -82.47063 30532 ft 455 kts 207°
2026-04-26 03:05 40.31654 -82.48810 30852 ft 456 kts 207°
2026-04-26 03:05 40.28770 -82.50559 31173 ft 457 kts 207°
2026-04-26 03:05 40.25881 -82.52308 31574 ft 456 kts 207°
2026-04-26 03:05 40.23010 -82.54045 31992 ft 454 kts 207°
2026-04-26 03:06 40.20157 -82.55768 32527 ft 449 kts 207°
2026-04-26 03:06 40.17250 -82.57250 32950 ft 450 kts 199°
2026-04-26 03:06 40.14181 -82.58093 33314 ft 452 kts 189°
2026-04-26 03:06 40.11028 -82.58252 33666 ft 455 kts 180°
2026-04-26 03:07 40.07869 -82.57847 34013 ft 456 kts 176°
2026-04-26 03:07 40.04718 -82.57395 34320 ft 455 kts 177°
2026-04-26 03:07 40.01575 -82.56953 34591 ft 454 kts 177°
2026-04-26 03:07 39.98437 -82.56516 34861 ft 453 kts 178°
2026-04-26 03:08 39.95306 -82.56084 35117 ft 452 kts 178°
2026-04-26 03:08 39.92180 -82.55654 35374 ft 451 kts 178°
2026-04-26 03:08 39.89056 -82.55225 35621 ft 451 kts 178°
2026-04-26 03:08 39.85939 -82.54797 35857 ft 450 kts 178°
2026-04-26 03:09 39.82864 -82.54375 36090 ft 450 kts 178°
2026-04-26 03:09 39.79753 -82.53948 36325 ft 449 kts 178°
2026-04-26 03:09 39.76667 -82.53525 36546 ft 448 kts 178°
2026-04-26 03:09 39.73565 -82.53100 36758 ft 447 kts 178°
2026-04-26 03:10 39.70470 -82.52677 36953 ft 447 kts 178°
2026-04-26 03:10 39.67379 -82.52255 37138 ft 447 kts 178°
2026-04-26 03:10 39.64288 -82.51833 37322 ft 446 kts 178°
2026-04-26 03:10 39.61198 -82.51412 37498 ft 446 kts 178°
2026-04-26 03:11 39.58113 -82.50991 37673 ft 446 kts 178°
2026-04-26 03:11 39.55026 -82.50571 37834 ft 445 kts 178°
2026-04-26 03:11 39.51941 -82.50152 37993 ft 445 kts 179°
2026-04-26 03:11 39.48861 -82.49733 37988 ft 445 kts 179°
2026-04-26 03:12 39.42708 -82.48898 37985 ft 444 kts 179°
2026-04-26 03:12 39.36559 -82.48065 37995 ft 444 kts 179°
2026-04-26 03:13 39.30459 -82.47239 37996 ft 443 kts 179°
2026-04-26 03:13 39.24285 -82.46406 37998 ft 443 kts 179°
2026-04-26 03:14 39.18185 -82.45585 38001 ft 444 kts 179°
2026-04-26 03:14 39.12036 -82.44759 38002 ft 444 kts 179°
2026-04-26 03:15 39.05901 -82.43934 37993 ft 441 kts 179°
2026-04-26 03:15 38.99791 -82.43115 37989 ft 442 kts 179°
2026-04-26 03:16 38.93671 -82.42297 37980 ft 442 kts 179°
2026-04-26 03:16 38.87554 -82.41480 37955 ft 442 kts 179°
2026-04-26 03:17 38.81456 -82.40666 37970 ft 440 kts 179°
2026-04-26 03:17 38.75419 -82.39862 37949 ft 438 kts 179°
2026-04-26 03:18 38.69356 -82.39056 37947 ft 437 kts 179°
2026-04-26 03:18 38.63313 -82.38254 37927 ft 436 kts 179°
2026-04-26 03:19 38.57292 -82.37456 37929 ft 435 kts 179°
2026-04-26 03:19 38.51277 -82.36662 37926 ft 434 kts 179°
2026-04-26 03:20 38.45269 -82.35868 37916 ft 434 kts 179°
2026-04-26 03:20 38.39263 -82.35076 37907 ft 433 kts 180°
2026-04-26 03:21 38.33261 -82.34286 37912 ft 433 kts 180°
2026-04-26 03:21 38.28274 -82.33631 37914 ft 433 kts 180°
2026-04-26 03:22 38.22277 -82.32845 37919 ft 433 kts 180°
2026-04-26 03:22 38.16268 -82.32057 37918 ft 434 kts 180°
2026-04-26 03:23 38.10259 -82.31271 37919 ft 435 kts 180°
2026-04-26 03:23 38.04235 -82.30483 37928 ft 435 kts 180°
2026-04-26 03:24 37.98198 -82.29695 37928 ft 436 kts 180°
2026-04-26 03:24 37.92202 -82.28913 37924 ft 436 kts 180°
2026-04-26 03:25 37.86157 -82.28126 37936 ft 437 kts 180°
2026-04-26 03:25 37.80107 -82.27341 37935 ft 437 kts 180°
2026-04-26 03:26 37.74051 -82.26552 37936 ft 438 kts 180°
2026-04-26 03:26 37.68012 -82.25771 37924 ft 435 kts 180°
2026-04-26 03:27 37.61984 -82.24995 37924 ft 436 kts 180°
2026-04-26 03:27 37.55948 -82.24209 37926 ft 436 kts 180°
2026-04-26 03:28 37.49912 -82.23432 37926 ft 436 kts 180°
2026-04-26 03:28 37.43881 -82.22661 37929 ft 435 kts 180°
2026-04-26 03:29 37.37886 -82.21893 37924 ft 435 kts 180°
2026-04-26 03:29 37.31856 -82.21120 37924 ft 435 kts 180°
2026-04-26 03:30 37.25830 -82.20347 37924 ft 435 kts 180°
2026-04-26 03:30 37.19792 -82.19568 37930 ft 434 kts 181°
2026-04-26 03:31 37.13765 -82.18802 37936 ft 435 kts 181°
2026-04-26 03:31 37.07783 -82.18045 37940 ft 435 kts 181°
2026-04-26 03:32 37.01751 -82.17279 37943 ft 435 kts 181°
2026-04-26 03:32 36.95729 -82.16513 37937 ft 435 kts 181°
2026-04-26 03:33 36.89708 -82.15744 37957 ft 435 kts 181°
2026-04-26 03:33 36.83684 -82.14983 37971 ft 435 kts 181°
2026-04-26 03:34 36.77659 -82.14224 37985 ft 435 kts 181°
2026-04-26 03:34 36.71627 -82.13449 37992 ft 435 kts 180°
2026-04-26 03:35 36.65597 -82.12673 37994 ft 435 kts 181°
2026-04-26 03:35 36.59574 -82.11939 37989 ft 435 kts 181°
2026-04-26 03:36 36.53552 -82.11192 37948 ft 435 kts 181°
2026-04-26 03:36 36.47568 -82.10445 37922 ft 435 kts 180°
2026-04-26 03:37 36.41553 -82.09692 37939 ft 434 kts 180°
2026-04-26 03:37 36.35541 -82.08940 37934 ft 434 kts 180°
2026-04-26 03:38 36.29522 -82.08188 37927 ft 434 kts 180°
2026-04-26 03:38 36.23508 -82.07439 37889 ft 434 kts 180°
2026-04-26 03:39 36.17497 -82.06691 37917 ft 434 kts 180°
2026-04-26 03:39 36.11480 -82.05943 37914 ft 434 kts 180°
2026-04-26 03:40 36.05470 -82.05196 37916 ft 434 kts 180°
2026-04-26 03:40 35.99463 -82.04451 37914 ft 434 kts 180°
2026-04-26 03:41 35.93500 -82.03713 37902 ft 433 kts 180°
2026-04-26 03:41 35.87500 -82.02972 37907 ft 433 kts 180°
2026-04-26 03:42 35.81493 -82.02230 37919 ft 433 kts 180°
2026-04-26 03:42 35.75488 -82.01492 37906 ft 433 kts 180°
2026-04-26 03:43 35.69488 -82.00754 37913 ft 433 kts 180°
2026-04-26 03:43 35.63477 -82.00015 37925 ft 434 kts 180°
2026-04-26 03:44 35.57487 -81.99280 37939 ft 435 kts 180°
2026-04-26 03:44 35.51464 -81.98545 37951 ft 435 kts 180°
2026-04-26 03:45 35.45429 -81.97805 37959 ft 436 kts 180°
2026-04-26 03:45 35.39395 -81.97068 37963 ft 436 kts 180°
2026-04-26 03:46 35.33355 -81.96331 37956 ft 435 kts 180°
2026-04-26 03:47 35.24331 -81.95234 37929 ft 435 kts 180°
2026-04-26 03:47 35.18321 -81.94504 37917 ft 433 kts 180°
2026-04-26 03:48 35.12317 -81.93776 37915 ft 434 kts 180°
2026-04-26 03:48 35.06307 -81.93079 37929 ft 433 kts 183°
2026-04-26 03:49 35.00341 -81.93231 37941 ft 426 kts 192°
2026-04-26 03:49 34.94546 -81.94261 37934 ft 422 kts 194°
2026-04-26 03:50 34.88747 -81.95314 37933 ft 422 kts 194°
2026-04-26 03:50 34.82934 -81.96359 37935 ft 422 kts 194°
2026-04-26 03:51 34.77122 -81.97399 37926 ft 422 kts 194°
2026-04-26 03:51 34.71312 -81.98439 37905 ft 422 kts 194°
2026-04-26 03:52 34.65491 -81.99479 37931 ft 423 kts 194°
2026-04-26 03:52 34.59645 -82.00523 37950 ft 425 kts 194°
2026-04-26 03:53 34.53792 -82.01565 37945 ft 424 kts 194°
2026-04-26 03:53 34.47964 -82.02601 37944 ft 423 kts 194°
2026-04-26 03:54 34.42122 -82.03640 37931 ft 425 kts 194°
2026-04-26 03:54 34.36312 -82.04670 37941 ft 424 kts 194°
2026-04-26 03:55 34.30468 -82.05705 37952 ft 425 kts 194°
2026-04-26 03:55 34.24621 -82.06740 37955 ft 425 kts 194°
2026-04-26 03:56 34.18769 -82.07774 37952 ft 425 kts 194°
2026-04-26 03:56 34.12922 -82.08805 37946 ft 425 kts 194°
2026-04-26 03:57 34.07073 -82.09835 37934 ft 425 kts 194°
2026-04-26 03:57 34.01218 -82.10865 37920 ft 425 kts 194°
2026-04-26 03:58 33.95368 -82.11894 37889 ft 424 kts 194°
2026-04-26 03:58 33.89562 -82.12912 37889 ft 421 kts 194°
2026-04-26 03:59 33.83754 -82.13929 37887 ft 422 kts 194°
2026-04-26 03:59 33.77942 -82.14946 37888 ft 422 kts 194°
2026-04-26 04:00 33.72132 -82.15957 37903 ft 422 kts 193°
2026-04-26 04:00 33.66231 -82.16384 37905 ft 427 kts 187°
2026-04-26 04:01 33.60285 -82.16582 37920 ft 428 kts 187°
2026-04-26 04:01 33.54325 -82.16793 37927 ft 429 kts 187°
2026-04-26 04:02 33.48355 -82.17005 37922 ft 428 kts 187°
2026-04-26 04:02 33.42415 -82.17216 37903 ft 426 kts 187°
2026-04-26 04:03 33.36495 -82.17426 37914 ft 426 kts 187°
2026-04-26 04:03 33.30573 -82.17637 37902 ft 426 kts 187°
2026-04-26 04:04 33.24691 -82.17845 37896 ft 426 kts 187°
2026-04-26 04:04 33.18770 -82.18054 37885 ft 426 kts 187°
2026-04-26 04:05 33.12847 -82.18264 37882 ft 426 kts 187°
2026-04-26 04:05 33.06927 -82.18473 37880 ft 426 kts 187°
2026-04-26 04:06 33.01007 -82.18681 37877 ft 426 kts 187°
2026-04-26 04:06 32.95083 -82.18890 37872 ft 426 kts 187°
2026-04-26 04:07 32.89160 -82.19098 37875 ft 425 kts 187°
2026-04-26 04:07 32.83244 -82.19305 37876 ft 425 kts 187°
2026-04-26 04:08 32.77326 -82.19513 37874 ft 426 kts 187°
2026-04-26 04:08 32.71405 -82.19720 37879 ft 426 kts 187°
2026-04-26 04:09 32.66482 -82.19892 37892 ft 426 kts 187°
2026-04-26 04:09 32.60533 -82.20101 37900 ft 430 kts 187°
2026-04-26 04:10 32.53506 -82.20349 37916 ft 439 kts 187°
2026-04-26 04:10 32.47341 -82.20564 37925 ft 446 kts 187°
2026-04-26 04:11 32.42168 -82.20742 37930 ft 449 kts 187°
2026-04-26 04:11 32.35892 -82.20958 37926 ft 452 kts 187°
2026-04-26 04:12 32.29584 -82.21176 37912 ft 455 kts 187°
2026-04-26 04:12 32.23260 -82.21395 37916 ft 454 kts 187°
2026-04-26 04:13 32.16938 -82.21613 37936 ft 454 kts 187°
2026-04-26 04:13 32.10614 -82.21832 37923 ft 454 kts 187°
2026-04-26 04:14 32.04271 -82.22051 37942 ft 457 kts 187°
2026-04-26 04:14 31.97904 -82.22270 37946 ft 457 kts 187°
2026-04-26 04:15 31.91540 -82.22488 37932 ft 457 kts 187°
2026-04-26 04:15 31.85174 -82.22707 37921 ft 457 kts 187°
2026-04-26 04:16 31.78844 -82.22925 37913 ft 459 kts 187°
2026-04-26 04:16 31.72440 -82.23145 37906 ft 461 kts 187°
2026-04-26 04:17 31.66033 -82.23363 37903 ft 460 kts 187°
2026-04-26 04:17 31.59628 -82.23581 37915 ft 460 kts 187°
2026-04-26 04:18 31.53218 -82.23800 37915 ft 462 kts 187°
2026-04-26 04:18 31.46767 -82.24020 37918 ft 464 kts 187°
2026-04-26 04:19 31.40320 -82.24239 37927 ft 463 kts 187°
2026-04-26 04:19 31.33874 -82.24458 37934 ft 463 kts 187°
2026-04-26 04:20 31.27423 -82.24676 37925 ft 464 kts 187°
2026-04-26 04:20 31.20975 -82.24895 37939 ft 468 kts 187°
2026-04-26 04:21 31.14456 -82.25115 37939 ft 469 kts 187°
2026-04-26 04:21 31.07939 -82.25334 37936 ft 469 kts 187°
2026-04-26 04:22 31.01414 -82.25585 37943 ft 467 kts 189°
2026-04-26 04:22 30.94979 -82.26481 37951 ft 467 kts 193°
2026-04-26 04:23 30.88527 -82.27442 37955 ft 467 kts 192°
2026-04-26 04:23 30.82075 -82.28394 37957 ft 467 kts 192°
2026-04-26 04:24 30.75669 -82.29338 37963 ft 467 kts 192°
2026-04-26 04:24 30.69228 -82.30286 37968 ft 466 kts 192°
2026-04-26 04:25 30.62776 -82.31151 37970 ft 469 kts 188°
2026-04-26 04:25 30.56204 -82.30923 37971 ft 477 kts 178°
2026-04-26 04:26 30.49621 -82.29624 37984 ft 479 kts 175°
2026-04-26 04:26 30.43056 -82.28291 37982 ft 479 kts 175°
2026-04-26 04:27 30.36484 -82.26970 37981 ft 479 kts 175°
2026-04-26 04:27 30.29910 -82.25652 37980 ft 479 kts 175°
2026-04-26 04:28 30.23346 -82.24337 37970 ft 479 kts 175°
2026-04-26 04:28 30.16852 -82.23035 37734 ft 464 kts 175°
2026-04-26 04:28 30.13674 -82.22406 36943 ft 464 kts 175°
2026-04-26 04:29 30.10478 -82.21778 36102 ft 467 kts 175°
2026-04-26 04:29 30.07279 -82.21148 35330 ft 467 kts 174°
2026-04-26 04:29 30.04083 -82.20517 34586 ft 466 kts 174°
2026-04-26 04:29 30.00890 -82.19887 33838 ft 465 kts 174°
2026-04-26 04:30 29.97699 -82.19258 32886 ft 467 kts 174°
2026-04-26 04:30 29.94484 -82.18625 31937 ft 470 kts 174°
2026-04-26 04:30 29.91268 -82.17990 31154 ft 469 kts 174°
2026-04-26 04:30 29.88068 -82.17354 30600 ft 464 kts 174°
2026-04-26 04:31 29.84908 -82.16721 29998 ft 460 kts 174°
2026-04-26 04:31 29.81809 -82.16101 29377 ft 455 kts 173°
2026-04-26 04:31 29.78705 -82.15476 28801 ft 449 kts 174°
2026-04-26 04:31 29.75639 -82.14866 28215 ft 444 kts 174°
2026-04-26 04:32 29.72610 -82.14267 27643 ft 440 kts 173°
2026-04-26 04:32 29.69600 -82.13672 27074 ft 436 kts 173°
2026-04-26 04:32 29.66621 -82.13082 26496 ft 433 kts 173°
2026-04-26 04:32 29.63660 -82.12495 25929 ft 430 kts 173°
2026-04-26 04:33 29.60713 -82.11910 25358 ft 428 kts 173°
2026-04-26 04:33 29.57789 -82.11330 24751 ft 427 kts 173°
2026-04-26 04:33 29.54875 -82.10752 24186 ft 425 kts 173°
2026-04-26 04:33 29.51964 -82.10176 23622 ft 423 kts 173°
2026-04-26 04:34 29.49061 -82.09600 23014 ft 421 kts 172°
2026-04-26 04:34 29.46193 -82.09027 22451 ft 417 kts 172°
2026-04-26 04:34 29.43347 -82.08434 21892 ft 414 kts 172°
2026-04-26 04:34 29.40561 -82.07876 21337 ft 410 kts 173°
2026-04-26 04:35 29.37750 -82.07341 20778 ft 407 kts 173°
2026-04-26 04:35 29.34962 -82.06810 20217 ft 405 kts 172°
2026-04-26 04:35 29.32201 -82.06170 19660 ft 404 kts 166°
2026-04-26 04:35 29.29536 -82.05129 19065 ft 404 kts 158°
2026-04-26 04:36 29.27035 -82.03695 18502 ft 402 kts 152°
2026-04-26 04:36 29.24597 -82.02148 17940 ft 399 kts 152°
2026-04-26 04:36 29.22175 -82.00617 17378 ft 395 kts 152°
2026-04-26 04:36 29.19775 -81.99102 16823 ft 392 kts 152°
2026-04-26 04:37 29.17395 -81.97602 16259 ft 389 kts 152°
2026-04-26 04:37 29.15030 -81.96114 15721 ft 386 kts 152°
2026-04-26 04:37 29.12717 -81.94660 15212 ft 383 kts 152°
2026-04-26 04:37 29.10391 -81.93198 14675 ft 380 kts 152°
2026-04-26 04:38 29.08079 -81.91723 14123 ft 379 kts 149°
2026-04-26 04:38 29.05940 -81.89968 13540 ft 379 kts 140°
2026-04-26 04:38 29.04027 -81.87931 13037 ft 374 kts 137°
2026-04-26 04:38 29.02144 -81.85891 12500 ft 370 kts 137°
2026-04-26 04:39 29.00278 -81.83883 11986 ft 367 kts 137°
2026-04-26 04:39 28.98444 -81.81882 11595 ft 360 kts 135°
2026-04-26 04:39 28.96853 -81.79710 11221 ft 354 kts 128°
2026-04-26 04:39 28.95372 -81.77490 10781 ft 350 kts 128°
2026-04-26 04:40 28.93900 -81.75292 10315 ft 347 kts 129°
2026-04-26 04:40 28.92448 -81.73131 10051 ft 339 kts 129°
2026-04-26 04:40 28.91025 -81.71019 9940 ft 330 kts 129°
2026-04-26 04:40 28.89650 -81.68980 9830 ft 318 kts 129°
2026-04-26 04:41 28.88321 -81.67011 9590 ft 310 kts 129°
2026-04-26 04:41 28.87027 -81.65096 9203 ft 307 kts 129°
2026-04-26 04:41 28.85731 -81.63180 8814 ft 304 kts 130°
2026-04-26 04:41 28.84442 -81.61275 8414 ft 301 kts 130°
2026-04-26 04:42 28.83163 -81.59385 8027 ft 299 kts 130°
2026-04-26 04:42 28.81898 -81.57515 7664 ft 296 kts 130°
2026-04-26 04:42 28.80655 -81.55679 7482 ft 286 kts 130°
2026-04-26 04:42 28.79464 -81.53917 7355 ft 275 kts 130°
2026-04-26 04:43 28.78393 -81.52133 7071 ft 272 kts 125°
2026-04-26 04:43 28.77377 -81.50321 6751 ft 270 kts 125°
2026-04-26 04:43 28.76367 -81.48527 6425 ft 268 kts 126°
2026-04-26 04:43 28.75361 -81.46746 6114 ft 265 kts 126°
2026-04-26 04:44 28.74382 -81.45012 6001 ft 254 kts 126°
2026-04-26 04:44 28.73465 -81.43388 5984 ft 240 kts 126°
2026-04-26 04:44 28.72550 -81.41807 5755 ft 239 kts 127°
2026-04-26 04:44 28.71621 -81.40237 5479 ft 238 kts 127°
2026-04-26 04:45 28.70696 -81.38676 5199 ft 237 kts 127°
2026-04-26 04:45 28.69776 -81.37120 4929 ft 236 kts 127°
2026-04-26 04:45 28.68866 -81.35576 4661 ft 234 kts 127°
2026-04-26 04:45 28.67963 -81.34041 4394 ft 232 kts 126°
2026-04-26 04:46 28.67086 -81.32551 4286 ft 220 kts 126°
2026-04-26 04:46 28.66264 -81.31151 4257 ft 203 kts 126°
2026-04-26 04:46 28.65506 -81.29868 4137 ft 188 kts 128°
2026-04-26 04:46 28.64588 -81.28900 3946 ft 176 kts 154°
2026-04-26 04:47 28.63451 -81.28501 3729 ft 168 kts 174°
2026-04-26 04:47 28.62314 -81.28425 3510 ft 163 kts 182°
2026-04-26 04:47 28.61193 -81.28429 3315 ft 159 kts 181°
2026-04-26 04:47 28.60097 -81.28417 3107 ft 155 kts 181°
2026-04-26 04:48 28.57990 -81.28396 2714 ft 149 kts 181°
2026-04-26 04:48 28.56954 -81.28386 2520 ft 148 kts 181°
2026-04-26 04:48 28.55926 -81.28375 2343 ft 146 kts 181°
2026-04-26 04:49 28.54946 -81.28364 2139 ft 135 kts 180°
2026-04-26 04:49 28.54018 -81.28355 1976 ft 135 kts 181°
2026-04-26 04:49 28.53088 -81.28346 1799 ft 133 kts 180°
2026-04-26 04:49 28.52165 -81.28337 1623 ft 132 kts 180°
2026-04-26 04:50 28.51244 -81.28328 1448 ft 132 kts 179°
2026-04-26 04:50 28.50329 -81.28319 1278 ft 132 kts 180°
2026-04-26 04:50 28.49418 -81.28310 1098 ft 129 kts 179°
2026-04-26 04:50 28.48511 -81.28301 950 ft 131 kts 179°
2026-04-26 04:51 28.47600 -81.28291 773 ft 131 kts 179°
2026-04-26 04:51 28.46684 -81.28284 600 ft 132 kts 179°
2026-04-26 04:51 28.45781 -81.28275 410 ft 131 kts 178°
2026-04-26 04:51 28.44876 -81.28267 251 ft 130 kts 178°
2026-04-26 04:52 28.43976 -81.28254 106 ft 126 kts 178°
2026-04-26 04:52 28.43227 -81.28247 95 ft 81 kts 179°
2026-04-26 04:52 28.42867 -81.28241 96 ft 28 kts 178°
2026-04-26 04:52 28.42665 -81.28244 99 ft 29 kts 182°
2026-04-26 04:53 28.42519 -81.28373 97 ft 29 kts 253°
2026-04-26 04:53 28.42450 -81.28588 98 ft 29 kts 252°
2026-04-26 04:53 28.42383 -81.28798 102 ft 27 kts 248°
2026-04-26 04:53 28.42322 -81.29002 100 ft 29 kts 253°
2026-04-26 04:54 28.42286 -81.29240 95 ft 32 kts 268°
2026-04-26 04:54 28.42285 -81.29402 94 ft 4 kts 269°
2026-04-26 04:54 28.42284 -81.29448 94 ft 8 kts 269°
2026-04-26 04:54 28.42282 -81.29523 94 ft 11 kts 268°
2026-04-26 04:55 28.42280 -81.29627 94 ft 15 kts 268°
2026-04-26 04:55 28.42282 -81.29752 94 ft 17 kts 271°
2026-04-26 04:55 28.42280 -81.29896 94 ft 20 kts 268°
2026-04-26 04:55 28.42279 -81.30059 94 ft 22 kts 272°
2026-04-26 04:56 28.42279 -81.30238 94 ft 24 kts 269°
2026-04-26 04:56 28.42271 -81.30433 96 ft 26 kts 266°
2026-04-26 04:56 28.42258 -81.30636 96 ft 26 kts 266°
2026-04-26 04:56 28.42240 -81.30850 94 ft 28 kts 265°
2026-04-26 04:57 28.42233 -81.30999 94 ft 29 kts 272°
2026-04-26 04:57 28.42261 -81.31205 96 ft 1 kts 281°
2026-04-26 04:57 28.42264 -81.31226 94 ft 5 kts 279°
2026-04-26 04:57 28.42275 -81.31276 94 ft 8 kts 296°
2026-04-26 04:58 28.42315 -81.31280 95 ft 7 kts
2026-04-26 04:58 28.42378 -81.31278 95 ft 11 kts
2026-04-26 04:58 28.42454 -81.31244 94 ft 13 kts 32°
2026-04-26 04:58 28.42510 -81.31204 94 ft 15 kts 32°
2026-04-26 04:59 28.42609 -81.31137 94 ft 18 kts 20°
2026-04-26 04:59 28.42676 -81.31160 94 ft 1 kts 295°
2026-04-26 04:59 28.42691 -81.31224 95 ft 0 kts 281°